Flag for Germany Weather past 2 weeks in Georgsmarienhütte, Lower Saxony, Germany

Now
46 °F

Partly sunny.


Feels Like: 40 °F
Forecast: 35 / 42 °F
Wind: 15 mph from West

Location: Muenster / Osnabrueck

Current Time: Dec 19, 2014 at 4:22:28 PM

Latest Report: Dec 19, 2014 at 3:50 PM


Visibility: N/A

Pressure: 29.86 "Hg

Humidity: 76%

Dew point: 39 °F

Location of GeorgsmarienhütteLocation

Historic Weather in Georgsmarienhütte — Graph

°F

Georgsmarienhütte temperature yesterday

Maximum temperature yesterday: 55 °F (at 6:20 PM)
Minimum temperature yesterday: 48 °F (at 12:20 AM)
Average temperature yesterday: 52 °F

Past Weeks' High & Low Weather Summary

 TemperatureHumidityPressure
High55 °F (Dec 18, 6:20 PM)100% (Dec 5, 12:20 AM)30.36 "Hg (Dec 5, 12:20 AM)
Low34 °F (Dec 4, 3:20 PM)70% (Dec 10, 4:50 AM)29.33 "Hg (Dec 12, 12:50 PM)
Average41 °F90%29.90 "Hg
* Reported Dec 4 3:20 PM — Dec 19 3:20 PM, Georgsmarienhütte, Weather by CustomWeather, © 2014

Note: Actual official high and low records may vary slightly from our data, if they occured in-between our weather recording intervals... More about our weather records

Advertising

Georgsmarienhütte weather history for previous 24 hours

 ConditionsComfort  
Time TempWeatherWind HumidityBarometerVisibility
3:20 PM
Dec 19
46 °FPartly sunny.14 mph82%29.83 "HgN/A
2:50 PM46 °FBroken clouds.14 mph82%29.83 "HgN/A
2:20 PM48 °FBroken clouds.12 mph87%29.80 "HgN/A
1:50 PM48 °FBroken clouds.9 mph87%29.80 "HgN/A
1:20 PM48 °FPartly sunny.9 mph87%29.80 "HgN/A
12:50 PM48 °FLight rain. Partly sunny.12 mph87%29.80 "HgN/A
12:20 PM48 °FLight rain. Broken clouds.14 mph100%29.77 "HgN/A
11:50 AM52 °FLight rain. Partly sunny.14 mph94%29.74 "Hg3 mi
11:20 AM52 °FLight rain. Broken clouds.16 mph94%29.74 "Hg4 mi
10:50 AM52 °FLight rain. Broken clouds.17 mph94%29.74 "Hg4 mi
10:20 AM52 °FLight rain. Broken clouds.18 mph94%29.71 "HgN/A
9:50 AM52 °FLight rain. Broken clouds.17 mph94%29.71 "Hg4 mi
9:20 AM52 °FLight rain. Fog.15 mph94%29.71 "Hg3 mi
8:50 AM52 °FDrizzle. Fog.18 mph94%29.71 "Hg3 mi
8:20 AM52 °FPassing clouds.17 mph94%29.71 "Hg4 mi
7:50 AM52 °FPassing clouds.16 mph94%29.71 "Hg4 mi
7:20 AM52 °FPassing clouds.17 mph94%29.74 "Hg4 mi
6:50 AM52 °FDrizzle. Fog.18 mph94%29.74 "Hg3 mi
6:20 AM52 °FDrizzle. Fog.18 mph100%29.74 "Hg3 mi
5:50 AM52 °FPassing clouds.15 mph100%29.74 "Hg4 mi
5:20 AM52 °FPassing clouds.14 mph100%29.74 "Hg4 mi
4:20 AM52 °FPassing clouds.16 mph100%29.77 "Hg4 mi
3:50 AM52 °FPassing clouds.17 mph100%29.77 "Hg4 mi
3:20 AM52 °FPassing clouds.16 mph100%29.80 "Hg4 mi
2:50 AM54 °FPassing clouds.17 mph94%29.80 "Hg4 mi
2:20 AM54 °FPassing clouds.17 mph94%29.80 "Hg4 mi
1:50 AM54 °FPassing clouds.17 mph94%29.80 "Hg4 mi
1:20 AM54 °FPassing clouds.18 mph94%29.80 "Hg4 mi
12:50 AM54 °FPassing clouds.18 mph94%29.80 "Hg4 mi
12:20 AM54 °FDrizzle. Fog.20 mph94%29.80 "Hg3 mi
11:50 PM
Dec 18
54 °FDrizzle. Fog.20 mph94%29.77 "Hg3 mi
11:20 PM54 °FDrizzle. Fog.16 mph94%29.80 "Hg3 mi
10:50 PM54 °FDrizzle. Fog.16 mph100%29.80 "Hg3 mi
10:20 PM54 °FDrizzle. Fog.15 mph94%29.80 "Hg3 mi
9:50 PM54 °FDrizzle. Fog.16 mph94%29.77 "Hg3 mi
9:20 PM54 °FDrizzle. Fog.17 mph94%29.80 "Hg3 mi
8:50 PM54 °FDrizzle. Fog.18 mph94%29.77 "Hg3 mi
8:20 PM54 °FDrizzle. Fog.22 mph94%29.77 "Hg2 mi
7:50 PM54 °FDrizzle. Fog.18 mph94%29.77 "Hg2 mi
7:20 PM54 °FDrizzle. Fog.22 mph94%29.77 "Hg2 mi
6:50 PM54 °FLight rain. Partly cloudy.17 mph100%29.77 "Hg4 mi
6:20 PM55 °FLight rain. Passing clouds.18 mph94%29.77 "Hg5 mi
5:50 PM54 °FDrizzle. Fog.16 mph100%29.77 "Hg3 mi
5:20 PM54 °FDrizzle. Fog.17 mph94%29.74 "Hg3 mi
4:20 PM54 °FDrizzle. Fog.14 mph100%29.74 "Hg2 mi
Weather by CustomWeather, © 2014

See weather overviewHow to use our weather pages